Location: Stuttgart
(48.7824°N, 9.1964°E)
Time: 02:35:02
(UTC+01:00)

ISS - Pass Details

Date: 25 January 2019
Orbit: 403 x 411 km, 51.6° (Epoch: 19 February)

Event Time Altitude Azimuth Distance (km) Brightness Sun altitude
Rises 20:03:23 0° 258° (WSW) 2,334 1.2 -28.5°
Reaches altitude 10° 20:05:29 10° 261° (W) 1,476 -0.1 -28.8°
Enters shadow 20:06:20 17° 264° (W) 1,134 -0.8 -29.0°
